アトラス彗星

C/2019 K1 ( ATLAS )

English version
Home page
Updated on May 17, 2020

---------------------------------------------------------------------

・ プロフィール

発見日 2019年5月16日
発見光度 17.1等
発見者 Asteroid Terrestrial-Impact Last Alert System (ATLAS) search program

・ 写真集

・ 軌道要素

Epoch 2020 Feb. 1.0 TT = JDT 2458880.5
T 2020 Feb. 12.96318 TT                                 Rudenko
q   2.0125860            (2000.0)            P               Q
z  +0.0001166      Peri.  265.70676     +0.02610957     +0.28887303
 +/-0.0000019      Node    73.37492     +0.31733720     +0.90542577
e   0.9997653      Incl.   87.14888     -0.94795326     +0.31105714
From 208 observations 2019 May 16-2020 Mar. 14, mean residual 0".7.

・ 星図

・ 光度変化

        m1 = 10.0 + 5 logΔ + 10.0 log r(t + 140)

---------------------------------------------------------------------

軌道要素はM.P.E.C. 2020-F67に掲載されたものです。
星図はステラナビゲータ Ver.10 (アストロアーツ) で作成したものです。
光度グラフはComet for Windowsで作成したものです。

---------------------------------------------------------------------

Copyright(C) Seiichi Yoshida (comet@aerith.net). All rights reserved.